| time (UTC) | temp F | wind direction | speed MPH | gust MPH | rain 1hr in | rain 24hr in | rain mn in | humidity % | barometer mb |
| 20260904001016 | 81 | 240 | 1.0 | 3.0 | 0.00 | 0.00 | 0.00 | 94 | 1010.6 |
| 20260904000515 | 81 | 309 | 0.0 | 2.0 | 0.00 | 0.00 | 0.00 | 94 | 1010.5 |
| 20260904000012 | 81 | 322 | 0.0 | 1.0 | 0.00 | 0.00 | 0.00 | 94 | 1010.3 |
| 20260903235512 | 81 | 262 | 1.0 | 2.0 | 0.00 | 0.00 | 0.00 | 93 | 1010.5 |
| 20260903235007 | 81 | 286 | 2.0 | 3.0 | 0.00 | 0.00 | 0.00 | 93 | 1010.4 |
| 20260903234502 | 81 | 300 | 2.0 | 2.0 | 0.00 | 0.00 | 0.00 | 94 | 1010.3 |
| 20260903233958 | 82 | 280 | 1.0 | 2.0 | 0.00 | 0.00 | 0.00 | 93 | 1010.4 |
| 20260903233454 | 82 | 272 | 1.0 | 2.0 | 0.00 | 0.00 | 0.00 | 93 | 1010.2 |
| 20260903232949 | 82 | 255 | 0.0 | 2.0 | 0.00 | 0.00 | 0.00 | 93 | 1010.0 |
| 20260903232444 | 82 | 265 | 0.0 | 2.0 | 0.00 | 0.00 | 0.00 | 92 | 1010.2 |
| 20260903231938 | 83 | 251 | 1.0 | 1.0 | 0.00 | 0.00 | 0.00 | 92 | 1010.3 |
| 20260903231434 | 83 | 191 | 0.0 | 1.0 | 0.00 | 0.00 | 0.00 | 91 | 1010.2 |
| 20260903230927 | 83 | 184 | 0.0 | 3.0 | 0.00 | 0.00 | 0.00 | 91 | 1010.2 |
| 20260903230423 | 83 | 276 | 0.0 | 0.0 | 0.00 | 0.00 | 0.00 | 90 | 1010.0 |
| 20260903225920 | 84 | 284 | 0.0 | 0.0 | 0.00 | 0.00 | 0.00 | 89 | 1010.1 |
| 20260903225415 | 84 | 205 | 0.0 | 1.0 | 0.00 | 0.00 | 0.00 | 89 | 1010.2 |
| 20260903224911 | 84 | 212 | 0.0 | 1.0 | 0.00 | 0.00 | 0.00 | 88 | 1010.2 |
| 20260903224407 | 84 | 269 | 0.0 | 0.0 | 0.00 | 0.00 | 0.00 | 87 | 1010.0 |
| 20260903223903 | 84 | 269 | 0.0 | 0.0 | 0.00 | 0.00 | 0.00 | 87 | 1009.7 |
| 20260903223401 | 85 | 309 | 0.0 | 1.0 | 0.00 | 0.00 | 0.00 | 87 | 1010.0 |
| 20260903222856 | 85 | 335 | 0.0 | 0.0 | 0.00 | 0.00 | 0.00 | 86 | 1010.0 |
| 20260903222356 | 85 | 333 | 0.0 | 1.0 | 0.00 | 0.00 | 0.00 | 86 | 1009.7 |
| 20260903221851 | 86 | 238 | 0.0 | 1.0 | 0.00 | 0.00 | 0.00 | 86 | 1010.0 |
| 20260903221349 | 86 | 240 | 0.0 | 1.0 | 0.00 | 0.00 | 0.00 | 84 | 1010.0 |
| 20260903220848 | 86 | 357 | 0.0 | 0.0 | 0.00 | 0.00 | 0.00 | 84 | 1010.1 |
| 20260903220342 | 86 | 260 | 0.0 | 0.0 | 0.00 | 0.00 | 0.00 | 84 | 1010.2 |
| 20260903215840 | 87 | 173 | 0.0 | 0.0 | 0.00 | 0.00 | 0.00 | 83 | 1010.3 |
| 20260903215337 | 87 | 212 | 0.0 | 3.0 | 0.00 | 0.00 | 0.00 | 82 | 1010.1 |
| 20260903214835 | 87 | 294 | 1.0 | 2.0 | 0.00 | 0.00 | 0.00 | 82 | 1010.2 |
| 20260903214332 | 88 | 312 | 0.0 | 2.0 | 0.00 | 0.00 | 0.00 | 79 | 1010.2 |
| 20260903213831 | 89 | 355 | 1.0 | 3.0 | 0.00 | 0.00 | 0.00 | 74 | 1010.2 |
| 20260903213327 | 89 | 261 | 2.0 | 2.0 | 0.00 | 0.00 | 0.00 | 76 | 1010.1 |
| 20260903212823 | 89 | 147 | 0.0 | 2.0 | 0.00 | 0.00 | 0.00 | 73 | 1010.2 |
| 20260903212319 | 89 | 358 | 0.0 | 2.0 | 0.00 | 0.00 | 0.00 | 76 | 1010.1 |
| 20260903211818 | 89 | 313 | 2.0 | 3.0 | 0.00 | 0.00 | 0.00 | 75 | 1010.2 |
| 20260903211315 | 89 | 214 | 0.0 | 3.0 | 0.00 | 0.00 | 0.00 | 73 | 1010.2 |
| 20260903210811 | 89 | 323 | 0.0 | 2.0 | 0.00 | 0.00 | 0.00 | 75 | 1010.1 |
| 20260903210311 | 90 | 329 | 0.0 | 2.0 | 0.00 | 0.00 | 0.00 | 73 | 1010.3 |
| 20260903205810 | 89 | 256 | 1.0 | 3.0 | 0.00 | 0.00 | 0.00 | 73 | 1010.3 |
| 20260903205310 | 90 | 241 | 1.0 | 3.0 | 0.00 | 0.00 | 0.00 | 71 | 1010.2 |
| 20260903204805 | 91 | 290 | 1.0 | 2.0 | 0.00 | 0.00 | 0.00 | 68 | 1010.5 |
| 20260903204301 | 91 | 273 | 1.0 | 2.0 | 0.00 | 0.00 | 0.00 | 67 | 1010.5 |
| 20260903203757 | 91 | 320 | 1.0 | 2.0 | 0.00 | 0.00 | 0.00 | 68 | 1010.6 |
| 20260903203252 | 89 | 295 | 1.0 | 2.0 | 0.00 | 0.00 | 0.00 | 73 | 1010.7 |
| 20260903202751 | 88 | 314 | 1.0 | 2.0 | 0.00 | 0.00 | 0.00 | 76 | 1010.8 |
| 20260903202248 | 88 | 257 | 1.0 | 2.0 | 0.00 | 0.00 | 0.00 | 76 | 1010.8 |
| 20260903201746 | 88 | 302 | 0.0 | 2.0 | 0.00 | 0.00 | 0.00 | 77 | 1010.8 |
| 20260903201242 | 88 | 289 | 2.0 | 2.0 | 0.00 | 0.00 | 0.00 | 80 | 1011.0 |
| 20260903200741 | 88 | 307 | 0.0 | 3.0 | 0.00 | 0.00 | 0.00 | 78 | 1010.9 |
| 20260903200236 | 88 | 286 | 1.0 | 2.0 | 0.00 | 0.00 | 0.00 | 77 | 1011.1 |
| 20260903195732 | 88 | 263 | 2.0 | 3.0 | 0.00 | 0.00 | 0.00 | 77 | 1011.2 |
| 20260903195228 | 87 | 272 | 3.0 | 4.0 | 0.00 | 0.00 | 0.00 | 76 | 1010.9 |
| 20260903194727 | 88 | 298 | 3.0 | 3.0 | 0.00 | 0.00 | 0.00 | 77 | 1011.2 |
| 20260903194223 | 87 | 280 | 2.0 | 3.0 | 0.00 | 0.00 | 0.00 | 77 | 1011.2 |
| 20260903193719 | 89 | 324 | 2.0 | 4.0 | 0.00 | 0.00 | 0.00 | 75 | 1011.5 |
| 20260903193214 | 89 | 263 | 3.0 | 3.0 | 0.00 | 0.00 | 0.00 | 75 | 1011.0 |
| 20260903192710 | 87 | 261 | 2.0 | 2.0 | 0.00 | 0.00 | 0.00 | 78 | 1011.1 |
| 20260903192206 | 88 | 285 | 2.0 | 3.0 | 0.00 | 0.00 | 0.00 | 76 | 1011.0 |
| 20260903191702 | 88 | 312 | 1.0 | 2.0 | 0.00 | 0.00 | 0.00 | 76 | 1011.1 |
| 20260903191201 | 87 | 255 | 2.0 | 2.0 | 0.00 | 0.00 | 0.00 | 76 | 1011.2 |
| 20260903190657 | 87 | 347 | 2.0 | 4.0 | 0.00 | 0.00 | 0.00 | 76 | 1011.3 |
| 20260903190156 | 87 | 290 | 2.0 | 3.0 | 0.00 | 0.00 | 0.00 | 76 | 1011.2 |
| 20260903185652 | 88 | 239 | 1.0 | 3.0 | 0.00 | 0.00 | 0.00 | 75 | 1011.2 |
| 20260903185146 | 88 | 230 | 2.0 | 3.0 | 0.00 | 0.00 | 0.00 | 77 | 1011.5 |
| 20260903184643 | 88 | 1 | 0.0 | 3.0 | 0.00 | 0.00 | 0.00 | 79 | 1011.4 |
| 20260903184139 | 88 | 258 | 1.0 | 3.0 | 0.00 | 0.00 | 0.00 | 77 | 1011.7 |
| 20260903183637 | 88 | 258 | 2.0 | 3.0 | 0.00 | 0.00 | 0.00 | 78 | 1011.7 |
| 20260903183132 | 88 | 244 | 2.0 | 3.0 | 0.00 | 0.00 | 0.00 | 78 | 1011.9 |
| 20260903182631 | 88 | 281 | 1.0 | 2.0 | 0.00 | 0.00 | 0.00 | 77 | 1011.7 |
| 20260903182128 | 88 | 4 | 1.0 | 4.0 | 0.00 | 0.00 | 0.00 | 75 | 1011.8 |
| 20260903181625 | 88 | 271 | 2.0 | 3.0 | 0.00 | 0.00 | 0.00 | 76 | 1011.8 |
| 20260903181120 | 88 | 0 | 1.0 | 4.0 | 0.00 | 0.00 | 0.00 | 75 | 1011.9 |
| 20260903180616 | 87 | 233 | 3.0 | 4.0 | 0.00 | 0.00 | 0.00 | 76 | 1012.4 |
| 20260903180110 | 87 | 269 | 2.0 | 3.0 | 0.00 | 0.00 | 0.00 | 79 | 1012.3 |
| 20260903175609 | 86 | 304 | 0.0 | 3.0 | 0.00 | 0.00 | 0.00 | 79 | 1012.4 |
| 20260903175109 | 87 | 288 | 2.0 | 4.0 | 0.00 | 0.00 | 0.00 | 78 | 1012.6 |
| 20260903174604 | 87 | 240 | 2.0 | 4.0 | 0.00 | 0.00 | 0.00 | 78 | 1012.4 |
| 20260903174058 | 87 | 176 | 0.0 | 4.0 | 0.00 | 0.00 | 0.00 | 77 | 1012.5 |
| 20260903173553 | 87 | 236 | 4.0 | 5.0 | 0.00 | 0.00 | 0.00 | 77 | 1012.5 |
| 20260903173050 | 87 | 281 | 0.0 | 1.0 | 0.00 | 0.00 | 0.00 | 80 | 1012.7 |
| 20260903172549 | 86 | 298 | 1.0 | 3.0 | 0.00 | 0.00 | 0.00 | 81 | 1012.5 |
| 20260903172045 | 86 | 300 | 3.0 | 3.0 | 0.00 | 0.00 | 0.00 | 81 | 1012.6 |
| 20260903171540 | 86 | 242 | 2.0 | 3.0 | 0.00 | 0.00 | 0.00 | 80 | 1012.8 |
| 20260903171036 | 86 | 304 | 3.0 | 5.0 | 0.00 | 0.00 | 0.00 | 81 | 1012.5 |
| 20260903170534 | 86 | 329 | 2.0 | 4.0 | 0.00 | 0.00 | 0.00 | 80 | 1012.7 |
| 20260903170030 | 85 | 273 | 2.0 | 3.0 | 0.00 | 0.00 | 0.00 | 80 | 1012.8 |
| 20260903165527 | 85 | 239 | 0.0 | 2.0 | 0.00 | 0.00 | 0.00 | 81 | 1012.6 |
| 20260903165023 | 86 | 312 | 2.0 | 3.0 | 0.00 | 0.00 | 0.00 | 81 | 1012.9 |
| 20260903164523 | 86 | 285 | 1.0 | 2.0 | 0.00 | 0.00 | 0.00 | 80 | 1013.3 |
| 20260903164019 | 86 | 268 | 2.0 | 3.0 | 0.00 | 0.00 | 0.00 | 82 | 1013.0 |
| 20260903163514 | 85 | 277 | 0.0 | 2.0 | 0.00 | 0.00 | 0.00 | 81 | 1013.1 |
| 20260903163010 | 86 | 247 | 0.0 | 3.0 | 0.00 | 0.00 | 0.00 | 81 | 1013.4 |
| 20260903162506 | 86 | 323 | 1.0 | 4.0 | 0.00 | 0.00 | 0.00 | 82 | 1013.3 |
| 20260903162001 | 85 | 303 | 2.0 | 4.0 | 0.00 | 0.00 | 0.00 | 83 | 1013.4 |
| 20260903161457 | 85 | 325 | 2.0 | 3.0 | 0.00 | 0.00 | 0.00 | 83 | 1013.4 |
| 20260903160953 | 84 | 293 | 0.0 | 2.0 | 0.00 | 0.00 | 0.00 | 85 | 1013.5 |
| 20260903160451 | 84 | 217 | 0.0 | 1.0 | 0.00 | 0.00 | 0.00 | 85 | 1013.7 |
| 20260903155951 | 84 | 290 | 0.0 | 2.0 | 0.00 | 0.00 | 0.00 | 84 | 1013.7 |
| 20260903155445 | 85 | 157 | 0.0 | 4.0 | 0.00 | 0.00 | 0.00 | 84 | 1013.5 |
| 20260903154942 | 84 | 284 | 0.0 | 4.0 | 0.00 | 0.00 | 0.00 | 84 | 1013.6 |
| 20260903154437 | 84 | 312 | 2.0 | 2.0 | 0.00 | 0.00 | 0.00 | 87 | 1013.5 |
| 20260903153932 | 82 | 200 | 0.0 | 1.0 | 0.00 | 0.00 | 0.00 | 88 | 1013.6 |
| 20260903153428 | 82 | 259 | 0.0 | 2.0 | 0.00 | 0.00 | 0.00 | 88 | 1013.3 |
| 20260903152924 | 83 | 232 | 1.0 | 1.0 | 0.00 | 0.00 | 0.00 | 88 | 1013.5 |
| 20260903152420 | 83 | 296 | 0.0 | 2.0 | 0.00 | 0.00 | 0.00 | 88 | 1013.4 |
| 20260903151915 | 83 | 322 | 0.0 | 2.0 | 0.00 | 0.00 | 0.00 | 88 | 1013.3 |
| 20260903151409 | 83 | 287 | 1.0 | 2.0 | 0.00 | 0.00 | 0.00 | 88 | 1013.1 |
| 20260903150904 | 83 | 266 | 1.0 | 2.0 | 0.00 | 0.00 | 0.00 | 87 | 1013.0 |
| 20260903150359 | 84 | 188 | 0.0 | 2.0 | 0.00 | 0.00 | 0.00 | 88 | 1013.0 |
| 20260903145854 | 83 | 285 | 0.0 | 2.0 | 0.00 | 0.00 | 0.00 | 88 | 1013.0 |
| 20260903145349 | 81 | 352 | 0.0 | 2.0 | 0.00 | 0.00 | 0.00 | 89 | 1012.9 |
| 20260903144848 | 81 | 289 | 0.0 | 2.0 | 0.00 | 0.00 | 0.00 | 90 | 1012.9 |
| 20260903144344 | 82 | 8 | 0.0 | 1.0 | 0.00 | 0.00 | 0.00 | 91 | 1012.9 |
| 20260903143839 | 82 | 301 | 0.0 | 3.0 | 0.00 | 0.00 | 0.00 | 91 | 1013.1 |
| 20260903143336 | 80 | 218 | 0.0 | 2.0 | 0.00 | 0.00 | 0.00 | 92 | 1013.1 |
| 20260903142831 | 80 | 297 | 0.0 | 2.0 | 0.00 | 0.00 | 0.00 | 93 | 1013.3 |
| 20260903142327 | 80 | 219 | 0.0 | 2.0 | 0.00 | 0.00 | 0.00 | 93 | 1013.4 |
| 20260903141823 | 79 | 119 | 0.0 | 1.0 | 0.00 | 0.00 | 0.00 | 94 | 1013.4 |
| 20260903141319 | 79 | 235 | 0.0 | 1.0 | 0.00 | 0.00 | 0.00 | 94 | 1013.6 |
| 20260903140818 | 79 | 241 | 2.0 | 3.0 | 0.00 | 0.00 | 0.00 | 93 | 1013.5 |
| 20260903140313 | 79 | 222 | 0.0 | 3.0 | 0.00 | 0.00 | 0.00 | 96 | 1013.7 |
| 20260903135809 | 78 | 287 | 1.0 | 3.0 | 0.00 | 0.00 | 0.00 | 96 | 1013.7 |
| 20260903135306 | 78 | 216 | 0.0 | 2.0 | 0.00 | 0.00 | 0.00 | 97 | 1013.5 |
| 20260903134803 | 78 | 310 | 1.0 | 2.0 | 0.00 | 0.00 | 0.00 | 97 | 1013.5 |
| 20260903134259 | 78 | 252 | 0.0 | 2.0 | 0.00 | 0.00 | 0.00 | 97 | 1013.5 |
| 20260903133756 | 78 | 244 | 1.0 | 2.0 | 0.00 | 0.00 | 0.00 | 96 | 1013.7 |
| 20260903133252 | 78 | 205 | 0.0 | 2.0 | 0.00 | 0.00 | 0.00 | 97 | 1013.7 |
| 20260903132747 | 78 | 277 | 0.0 | 2.0 | 0.00 | 0.00 | 0.00 | 97 | 1013.8 |
| 20260903132242 | 78 | 268 | 1.0 | 2.0 | 0.00 | 0.00 | 0.00 | 98 | 1014.0 |
| 20260903131737 | 78 | 266 | 1.0 | 2.0 | 0.00 | 0.00 | 0.00 | 98 | 1014.2 |
| 20260903131236 | 77 | 266 | 0.0 | 2.0 | 0.00 | 0.00 | 0.00 | 98 | 1014.1 |
| 20260903130731 | 77 | 255 | 0.0 | 3.0 | 0.00 | 0.00 | 0.00 | 98 | 1014.4 |
| 20260903130226 | 77 | 338 | 1.0 | 4.0 | 0.00 | 0.00 | 0.00 | 99 | 1014.3 |
| 20260903125724 | 77 | 238 | 1.0 | 2.0 | 0.00 | 0.00 | 0.00 | 99 | 1014.3 |
| 20260903125220 | 76 | 298 | 0.0 | 2.0 | 0.00 | 0.00 | 0.00 | 99 | 1014.2 |
| 20260903124719 | 76 | 330 | 0.0 | 2.0 | 0.00 | 0.00 | 0.00 | 99 | 1014.1 |
| 20260903124215 | 76 | 309 | 0.0 | 2.0 | 0.00 | 0.00 | 0.00 | 99 | 1014.1 |
| 20260903123713 | 76 | 245 | 0.0 | 1.0 | 0.00 | 0.00 | 0.00 | 99 | 1014.0 |
| 20260903123212 | 75 | 284 | 2.0 | 2.0 | 0.00 | 0.00 | 0.00 | 99 | 1014.2 |
| 20260903122711 | 75 | 309 | 0.0 | 2.0 | 0.00 | 0.00 | 0.00 | 99 | 1014.1 |
| 20260903122206 | 75 | 106 | 0.0 | 3.0 | 0.00 | 0.00 | 0.00 | 99 | 1014.0 |
| 20260903121705 | 74 | 284 | 0.0 | 2.0 | 0.00 | 0.00 | 0.00 | 99 | 1013.9 |
| 20260903121201 | 74 | 263 | 0.0 | 1.0 | 0.00 | 0.00 | 0.00 | 99 | 1013.9 |
| 20260903120700 | 74 | 246 | 2.0 | 2.0 | 0.00 | 0.00 | 0.00 | 99 | 1013.9 |
| 20260903120155 | 73 | 200 | 1.0 | 2.0 | 0.00 | 0.00 | 0.00 | 99 | 1013.9 |
| 20260903115653 | 73 | 209 | 1.0 | 2.0 | 0.00 | 0.00 | 0.00 | 99 | 1013.9 |
| 20260903115149 | 73 | 345 | 0.0 | 2.0 | 0.00 | 0.00 | 0.00 | 99 | 1013.7 |
| 20260903114643 | 73 | 269 | 1.0 | 2.0 | 0.00 | 0.00 | 0.00 | 99 | 1013.8 |
| 20260903114139 | 72 | 202 | 0.0 | 1.0 | 0.00 | 0.00 | 0.00 | 99 | 1013.9 |
| 20260903113634 | 72 | 268 | 1.0 | 1.0 | 0.00 | 0.00 | 0.00 | 99 | 1013.8 |
| 20260903113130 | 72 | 228 | 0.0 | 1.0 | 0.00 | 0.00 | 0.00 | 99 | 1013.6 |
| 20260903112626 | 72 | 315 | 0.0 | 1.0 | 0.00 | 0.00 | 0.00 | 99 | 1013.5 |
| 20260903112126 | 72 | 230 | 0.0 | 1.0 | 0.00 | 0.00 | 0.00 | 99 | 1013.3 |
| 20260903111624 | 72 | 243 | 0.0 | 1.0 | 0.00 | 0.00 | 0.00 | 99 | 1013.4 |
| 20260903111120 | 72 | 228 | 0.0 | 2.0 | 0.00 | 0.00 | 0.00 | 99 | 1013.3 |
| 20260903110616 | 72 | 253 | 0.0 | 2.0 | 0.00 | 0.00 | 0.00 | 99 | 1013.4 |
| 20260903110111 | 72 | 249 | 0.0 | 1.0 | 0.00 | 0.00 | 0.00 | 99 | 1013.5 |
| 20260903105601 | 72 | 224 | 0.0 | 1.0 | 0.00 | 0.00 | 0.00 | 99 | 1013.4 |
| 20260903105055 | 71 | 287 | 0.0 | 1.0 | 0.00 | 0.00 | 0.00 | 99 | 1013.4 |
| 20260903104555 | 71 | 205 | 0.0 | 1.0 | 0.00 | 0.00 | 0.00 | 99 | 1013.5 |
| 20260903104051 | 71 | 256 | 0.0 | 1.0 | 0.00 | 0.00 | 0.00 | 99 | 1013.2 |
| 20260903103547 | 71 | 212 | 0.0 | 1.0 | 0.00 | 0.00 | 0.00 | 99 | 1013.3 |
| 20260903103043 | 71 | 341 | 0.0 | 1.0 | 0.00 | 0.00 | 0.00 | 99 | 1013.2 |
| 20260903102538 | 71 | 323 | 0.0 | 2.0 | 0.00 | 0.00 | 0.00 | 99 | 1013.2 |
| 20260903102031 | 71 | 269 | 0.0 | 1.0 | 0.00 | 0.00 | 0.00 | 99 | 1012.9 |
| 20260903101526 | 71 | 343 | 0.0 | 2.0 | 0.00 | 0.00 | 0.00 | 99 | 1013.0 |
| 20260903101022 | 71 | 217 | 0.0 | 1.0 | 0.00 | 0.00 | 0.00 | 99 | 1012.7 |
| 20260903100516 | 71 | 293 | 0.0 | 1.0 | 0.00 | 0.00 | 0.00 | 99 | 1012.8 |
| 20260903100015 | 71 | 279 | 0.0 | 1.0 | 0.00 | 0.00 | 0.00 | 99 | 1012.9 |
| 20260903095514 | 71 | 218 | 0.0 | 1.0 | 0.00 | 0.00 | 0.00 | 99 | 1012.7 |
| 20260903095009 | 71 | 246 | 0.0 | 1.0 | 0.00 | 0.00 | 0.00 | 99 | 1012.9 |
| 20260903094508 | 71 | 325 | 0.0 | 1.0 | 0.00 | 0.00 | 0.00 | 99 | 1013.0 |
| 20260903094004 | 71 | 304 | 0.0 | 0.0 | 0.00 | 0.00 | 0.00 | 99 | 1012.8 |
| 20260903093459 | 71 | 332 | 1.0 | 2.0 | 0.00 | 0.00 | 0.00 | 99 | 1012.7 |
| 20260903092955 | 71 | 300 | 0.0 | 1.0 | 0.00 | 0.00 | 0.00 | 99 | 1012.6 |
| 20260903092454 | 71 | 224 | 0.0 | 2.0 | 0.00 | 0.00 | 0.00 | 99 | 1012.4 |
| 20260903091954 | 71 | 212 | 0.0 | 2.0 | 0.00 | 0.00 | 0.00 | 99 | 1012.6 |
| 20260903091451 | 71 | 256 | 0.0 | 1.0 | 0.00 | 0.00 | 0.00 | 99 | 1012.7 |
| 20260903090947 | 71 | 15 | 0.0 | 2.0 | 0.00 | 0.00 | 0.00 | 99 | 1012.7 |
| 20260903090443 | 71 | 6 | 0.0 | 1.0 | 0.00 | 0.00 | 0.00 | 99 | 1012.7 |
| 20260903085941 | 71 | 199 | 0.0 | 1.0 | 0.00 | 0.00 | 0.00 | 99 | 1012.7 |
| 20260903085439 | 71 | 355 | 0.0 | 0.0 | 0.00 | 0.00 | 0.00 | 99 | 1012.7 |
| 20260903084934 | 71 | 282 | 0.0 | 1.0 | 0.00 | 0.00 | 0.00 | 99 | 1013.0 |
| 20260903084432 | 71 | 228 | 0.0 | 1.0 | 0.00 | 0.00 | 0.00 | 99 | 1012.8 |
| 20260903083928 | 71 | 195 | 0.0 | 1.0 | 0.00 | 0.00 | 0.00 | 99 | 1012.9 |
| 20260903083424 | 71 | 309 | 0.0 | 1.0 | 0.00 | 0.00 | 0.00 | 99 | 1013.0 |
| 20260903082923 | 71 | 269 | 0.0 | 1.0 | 0.00 | 0.00 | 0.00 | 99 | 1012.9 |
| 20260903082418 | 71 | 218 | 0.0 | 0.0 | 0.00 | 0.00 | 0.00 | 99 | 1012.9 |
| 20260903081913 | 72 | 256 | 0.0 | 1.0 | 0.00 | 0.00 | 0.00 | 99 | 1012.8 |
| 20260903081408 | 72 | 277 | 0.0 | 2.0 | 0.00 | 0.00 | 0.00 | 99 | 1012.8 |
| 20260903080904 | 72 | 335 | 0.0 | 3.0 | 0.00 | 0.00 | 0.00 | 99 | 1012.9 |
| 20260903080401 | 72 | 274 | 1.0 | 3.0 | 0.00 | 0.00 | 0.00 | 99 | 1012.9 |
| 20260903075856 | 71 | 301 | 0.0 | 1.0 | 0.00 | 0.00 | 0.00 | 99 | 1012.8 |
| 20260903075351 | 72 | 345 | 0.0 | 1.0 | 0.00 | 0.00 | 0.00 | 99 | 1012.8 |
| 20260903074850 | 72 | 327 | 0.0 | 1.0 | 0.00 | 0.00 | 0.00 | 99 | 1012.8 |
| 20260903074344 | 72 | 290 | 0.0 | 2.0 | 0.00 | 0.00 | 0.00 | 99 | 1012.7 |
| 20260903073840 | 72 | 303 | 0.0 | 2.0 | 0.00 | 0.00 | 0.00 | 99 | 1012.8 |
| 20260903073335 | 71 | 224 | 0.0 | 1.0 | 0.00 | 0.00 | 0.00 | 99 | 1012.8 |
| 20260903072831 | 71 | 341 | 0.0 | 1.0 | 0.00 | 0.00 | 0.00 | 99 | 1012.8 |
| 20260903072327 | 71 | 348 | 0.0 | 1.0 | 0.00 | 0.00 | 0.00 | 99 | 1012.7 |
| 20260903071824 | 71 | 317 | 0.0 | 1.0 | 0.00 | 0.00 | 0.00 | 99 | 1012.8 |
| 20260903071320 | 71 | 195 | 0.0 | 1.0 | 0.00 | 0.00 | 0.00 | 99 | 1012.6 |
| 20260903070820 | 71 | 341 | 0.0 | 2.0 | 0.00 | 0.00 | 0.00 | 99 | 1012.7 |
| 20260903070315 | 71 | 231 | 0.0 | 1.0 | 0.00 | 0.00 | 0.00 | 99 | 1012.7 |
| 20260903065810 | 71 | 233 | 0.0 | 2.0 | 0.00 | 0.00 | 0.00 | 99 | 1012.6 |
| 20260903065309 | 71 | 229 | 0.0 | 0.0 | 0.00 | 0.00 | 0.00 | 99 | 1012.7 |
| 20260903064809 | 71 | 203 | 0.0 | 0.0 | 0.00 | 0.00 | 0.00 | 99 | 1012.8 |
| 20260903064304 | 72 | 16 | 0.0 | 1.0 | 0.00 | 0.00 | 0.00 | 99 | 1012.9 |
| 20260903063800 | 71 | 79 | 0.0 | 0.0 | 0.00 | 0.00 | 0.00 | 98 | 1012.8 |
| 20260903063254 | 72 | 315 | 0.0 | 1.0 | 0.00 | 0.00 | 0.00 | 98 | 1013.0 |
| 20260903062746 | 72 | 206 | 0.0 | 2.0 | 0.00 | 0.00 | 0.00 | 98 | 1012.6 |
| 20260903062245 | 72 | 314 | 0.0 | 1.0 | 0.00 | 0.00 | 0.00 | 98 | 1013.0 |
| 20260903061742 | 72 | 297 | 0.0 | 1.0 | 0.00 | 0.00 | 0.00 | 98 | 1012.9 |
| 20260903061239 | 72 | 14 | 0.0 | 0.0 | 0.00 | 0.00 | 0.00 | 98 | 1013.2 |
| 20260903060736 | 72 | 348 | 0.0 | 1.0 | 0.00 | 0.00 | 0.00 | 98 | 1012.9 |
| 20260903060235 | 72 | 345 | 0.0 | 1.0 | 0.00 | 0.00 | 0.00 | 98 | 1013.0 |
| 20260903055732 | 72 | 341 | 0.0 | 1.0 | 0.00 | 0.00 | 0.00 | 98 | 1013.4 |
| 20260903055231 | 72 | 269 | 0.0 | 1.0 | 0.00 | 0.00 | 0.00 | 98 | 1013.4 |
| 20260903054726 | 72 | 339 | 0.0 | 0.0 | 0.00 | 0.00 | 0.00 | 98 | 1013.3 |
| 20260903054221 | 72 | 326 | 0.0 | 3.0 | 0.00 | 0.00 | 0.00 | 98 | 1013.5 |
| 20260903053718 | 72 | 271 | 1.0 | 3.0 | 0.00 | 0.00 | 0.00 | 99 | 1013.4 |
| 20260903053213 | 72 | 228 | 0.0 | 2.0 | 0.00 | 0.00 | 0.00 | 99 | 1013.8 |
| 20260903052709 | 72 | 229 | 0.0 | 2.0 | 0.00 | 0.00 | 0.00 | 99 | 1013.7 |
| 20260903052204 | 72 | 220 | 0.0 | 1.0 | 0.00 | 0.00 | 0.00 | 99 | 1013.6 |
| 20260903051659 | 72 | 269 | 0.0 | 2.0 | 0.00 | 0.00 | 0.00 | 99 | 1013.7 |
| 20260903051154 | 72 | 135 | 0.0 | 1.0 | 0.00 | 0.00 | 0.00 | 99 | 1013.6 |
| 20260903050650 | 72 | 259 | 0.0 | 2.0 | 0.00 | 0.00 | 0.00 | 99 | 1013.6 |
| 20260903050138 | 72 | 269 | 0.0 | 1.0 | 0.00 | 0.00 | 0.00 | 98 | 1013.3 |
| 20260903045638 | 72 | 294 | 0.0 | 1.0 | 0.00 | 0.00 | 0.00 | 98 | 1013.4 |
| 20260903045135 | 72 | 302 | 0.0 | 2.0 | 0.00 | 0.00 | 0.00 | 98 | 1013.5 |
| 20260903044630 | 72 | 11 | 0.0 | 3.0 | 0.00 | 0.00 | 0.00 | 99 | 1013.5 |
| 20260903044125 | 72 | 309 | 0.0 | 2.0 | 0.00 | 0.00 | 0.00 | 99 | 1013.4 |
| 20260903043621 | 72 | 279 | 0.0 | 1.0 | 0.00 | 0.00 | 0.00 | 99 | 1013.2 |
| 20260903043120 | 72 | 208 | 0.0 | 2.0 | 0.00 | 0.00 | 0.00 | 99 | 1013.6 |
| 20260903042615 | 72 | 218 | 0.0 | 1.0 | 0.00 | 0.00 | 0.00 | 99 | 1013.5 |
| 20260903042110 | 73 | 354 | 0.0 | 2.0 | 0.00 | 0.00 | 0.00 | 99 | 1013.7 |
| 20260903041607 | 72 | 265 | 0.0 | 2.0 | 0.00 | 0.00 | 0.00 | 99 | 1013.7 |
| 20260903041102 | 72 | 273 | 1.0 | 2.0 | 0.00 | 0.00 | 0.00 | 99 | 1013.5 |
| 20260903040601 | 72 | 236 | 0.0 | 2.0 | 0.00 | 0.00 | 0.00 | 98 | 1013.6 |
| 20260903040058 | 72 | 197 | 0.0 | 2.0 | 0.00 | 0.02 | 0.02 | 98 | 1013.6 |
| 20260903035552 | 72 | 140 | 1.0 | 1.0 | 0.00 | 0.02 | 0.02 | 98 | 1013.6 |
| 20260903035048 | 72 | 202 | 1.0 | 1.0 | 0.00 | 0.02 | 0.02 | 98 | 1013.8 |
| 20260903034543 | 72 | 265 | 0.0 | 2.0 | 0.00 | 0.02 | 0.02 | 98 | 1013.8 |
| 20260903034038 | 72 | 309 | 0.0 | 1.0 | 0.00 | 0.02 | 0.02 | 98 | 1013.5 |
| 20260903033533 | 71 | 44 | 0.0 | 1.0 | 0.00 | 0.02 | 0.02 | 98 | 1013.6 |
| 20260903033028 | 71 | 40 | 1.0 | 1.0 | 0.00 | 0.02 | 0.02 | 98 | 1013.5 |
| 20260903032523 | 71 | 111 | 0.0 | 1.0 | 0.00 | 0.02 | 0.02 | 98 | 1013.4 |
| 20260903032019 | 71 | 296 | 0.0 | 2.0 | 0.00 | 0.02 | 0.02 | 98 | 1013.6 |
| 20260903031513 | 71 | 32 | 0.0 | 2.0 | 0.00 | 0.02 | 0.02 | 98 | 1013.5 |
| 20260903031008 | 72 | 323 | 0.0 | 3.0 | 0.00 | 0.02 | 0.02 | 98 | 1013.4 |
| 20260903030504 | 71 | 336 | 0.0 | 2.0 | 0.00 | 0.02 | 0.02 | 98 | 1013.4 |
| 20260903025959 | 71 | 355 | 0.0 | 1.0 | 0.00 | 0.02 | 0.02 | 98 | 1013.2 |
| 20260903025454 | 71 | 223 | 0.0 | 2.0 | 0.00 | 0.02 | 0.02 | 98 | 1013.0 |
| 20260903024950 | 71 | 299 | 0.0 | 2.0 | 0.00 | 0.02 | 0.02 | 98 | 1013.4 |
| 20260903024448 | 71 | 357 | 0.0 | 1.0 | 0.00 | 0.02 | 0.02 | 98 | 1013.3 |
| 20260903023943 | 71 | 323 | 0.0 | 1.0 | 0.00 | 0.02 | 0.02 | 98 | 1013.4 |
| 20260903023440 | 71 | 29 | 0.0 | 1.0 | 0.00 | 0.02 | 0.02 | 98 | 1013.5 |
| 20260903022935 | 72 | 329 | 0.0 | 2.0 | 0.00 | 0.02 | 0.02 | 98 | 1013.3 |
| 20260903022434 | 71 | 285 | 2.0 | 2.0 | 0.00 | 0.02 | 0.02 | 98 | 1013.4 |
| 20260903021932 | 71 | 251 | 0.0 | 2.0 | 0.00 | 0.02 | 0.02 | 98 | 1013.5 |
| 20260903021428 | 71 | 229 | 0.0 | 2.0 | 0.00 | 0.02 | 0.02 | 98 | 1013.8 |
| 20260903020923 | 71 | 116 | 0.0 | 1.0 | 0.00 | 0.02 | 0.02 | 98 | 1013.8 |
| 20260903020418 | 72 | 241 | 1.0 | 2.0 | 0.00 | 0.02 | 0.02 | 98 | 1013.9 |
| 20260903015913 | 72 | 293 | 0.0 | 1.0 | 0.00 | 0.02 | 0.02 | 97 | 1014.0 |
| 20260903015409 | 72 | 343 | 0.0 | 1.0 | 0.00 | 0.02 | 0.02 | 97 | 1013.9 |
| 20260903014903 | 72 | 16 | 0.0 | 2.0 | 0.00 | 0.02 | 0.02 | 97 | 1013.9 |
| 20260903014357 | 72 | 285 | 1.0 | 1.0 | 0.00 | 0.02 | 0.02 | 97 | 1014.1 |
| 20260903013853 | 72 | 283 | 0.0 | 1.0 | 0.00 | 0.02 | 0.02 | 97 | 1014.1 |
| 20260903013351 | 72 | 208 | 0.0 | 2.0 | 0.00 | 0.02 | 0.02 | 97 | 1014.0 |
| 20260903012851 | 72 | 293 | 2.0 | 3.0 | 0.00 | 0.02 | 0.02 | 98 | 1014.0 |
| 20260903012345 | 72 | 89 | 0.0 | 1.0 | 0.00 | 0.02 | 0.02 | 98 | 1013.9 |
| 20260903011839 | 72 | 304 | 0.0 | 3.0 | 0.00 | 0.02 | 0.02 | 98 | 1013.9 |
| 20260903011339 | 72 | 0 | 1.0 | 2.0 | 0.00 | 0.02 | 0.02 | 98 | 1013.9 |
| 20260903010834 | 72 | 321 | 0.0 | 1.0 | 0.00 | 0.02 | 0.02 | 98 | 1013.8 |
| 20260903010329 | 72 | 81 | 0.0 | 1.0 | 0.00 | 0.02 | 0.02 | 98 | 1013.8 |
| 20260903005827 | 72 | 242 | 0.0 | 1.0 | 0.00 | 0.02 | 0.02 | 98 | 1013.6 |
| 20260903005323 | 72 | 185 | 0.0 | 1.0 | 0.00 | 0.02 | 0.02 | 98 | 1013.8 |
| 20260903004819 | 72 | 339 | 0.0 | 1.0 | 0.00 | 0.02 | 0.02 | 97 | 1013.9 |
| 20260903004314 | 72 | 309 | 0.0 | 1.0 | 0.00 | 0.02 | 0.02 | 97 | 1013.6 |
| 20260903003810 | 72 | 353 | 1.0 | 1.0 | 0.00 | 0.02 | 0.02 | 97 | 1013.8 |
| 20260903003304 | 72 | 202 | 0.0 | 1.0 | 0.00 | 0.02 | 0.02 | 97 | 1013.5 |
| 20260903002759 | 72 | 321 | 0.0 | 1.0 | 0.00 | 0.02 | 0.02 | 97 | 1013.5 |
| 20260903002258 | 72 | 258 | 0.0 | 1.0 | 0.00 | 0.02 | 0.02 | 97 | 1013.4 |
| 20260903001753 | 72 | 297 | 0.0 | 0.0 | 0.00 | 0.02 | 0.02 | 97 | 1013.2 |
| 20260903001248 | 73 | 287 | 2.0 | 4.0 | 0.00 | 0.02 | 0.02 | 97 | 1013.0 |